Location: Bieujac
(44.5398°N, 0.1549°W)
Time: 18:30:14
(UTC+00:00)

Cosmos 1680 Rocket - Pass Details

Date: 17 November 2019
Orbit: 759 x 782 km, 74.1° (Epoch: 12 December)

Event Time Altitude Azimuth Distance (km) Brightness Sun altitude
Exits shadow 04:40:19 42° 205° (SSW) 1,095 4.1 -24.6°
Drops below altitude 10° 04:44:05 10° 178° (S) 2,328 6.0 -23.9°
Sets 04:46:30 0° 174° (S) 3,253 6.9 -23.5°
